Flag for Germany Weather past 2 weeks in Memmingen, Bavaria, Germany

Now
49 °F

Clear.


Feels Like: 49 °F
Forecast: 49 / 74 °F
Wind: 2 mph from Southeast

Location: Kempten

Current Time: Sep 17, 2014 at 6:40:46 AM

Latest Report: Sep 17, 2014 at 6:00 AM


Visibility: 9 mi

Pressure: 29.97 "Hg

Humidity: 96%

Dew point: 48 °F

Location of MemmingenLocation

Historic Weather in Memmingen — Graph

°F

Memmingen temperature yesterday

Maximum temperature yesterday: 72 °F (at 3:00 PM)
Minimum temperature yesterday: 49 °F (at 7:00 AM)
Average temperature yesterday: 59 °F

Past Weeks' High & Low Weather Summary

 TemperatureHumidityPressure
High77 °F (Sep 8, 5:00 PM)99% (Sep 10, 1:00 AM)30.18 "Hg (Sep 10, 1:00 AM)
Low48 °F (Sep 12, 7:00 AM)40% (Sep 8, 5:00 PM)29.83 "Hg (Sep 6, 4:00 PM)
Average58 °F84%30.01 "Hg
* Reported Sep 2 4:00 AM — Sep 17 4:00 AM, Memmingen, Weather by CustomWeather, © 2014

Note: Actual official high and low records may vary slightly from our data, if they occured in-between our weather recording intervals... More about our weather records

Advertising

Memmingen weather history for previous 24 hours

 ConditionsComfort  
Time TempWeatherWind HumidityBarometerVisibility
4:00 AM
Sep 17
49 °FFog.2 mph97%29.97 "Hg4 mi
3:00 AM50 °FFog.2 mph97%29.97 "Hg3 mi
2:00 AM51 °FFog.2 mph97%29.97 "Hg2 mi
1:00 AM51 °FFog.2 mph97%29.98 "Hg2 mi
12:00 AM53 °FFog.1 mph96%29.98 "Hg3 mi
11:00 PM
Sep 16
54 °FClear.No wind94%29.98 "Hg5 mi
10:00 PM56 °FClear.1 mph94%29.97 "Hg5 mi
9:00 PM59 °FClear.1 mph89%29.97 "Hg9 mi
8:00 PM62 °FClear.No wind84%29.94 "Hg10 mi
7:00 PM65 °FSunny.2 mph73%29.92 "Hg12 mi
6:00 PM68 °FSunny.3 mph69%29.90 "Hg10 mi
5:00 PM70 °FPassing clouds.3 mph66%29.89 "Hg14 mi
4:00 PM69 °FScattered clouds.2 mph62%29.90 "Hg18 mi
3:00 PM72 °FPassing clouds.2 mph52%29.90 "Hg28 mi
2:00 PM69 °FSunny.2 mph53%29.92 "Hg28 mi
1:00 PM69 °FSunny.2 mph59%29.93 "Hg19 mi
12:00 PM69 °FSunny.1 mph61%29.94 "Hg19 mi
11:00 AM64 °FPassing clouds.1 mph69%29.97 "Hg19 mi
10:00 AM59 °FSunny.2 mph78%30.00 "Hg17 mi
9:00 AM54 °FSunny.2 mph88%30.02 "Hg12 mi
8:00 AM49 °FSunny.2 mph97%30.04 "Hg6 mi
7:00 AM49 °FSunny.No wind98%30.04 "Hg6 mi
6:00 AM49 °FFog.2 mph99%30.03 "Hg4 mi
Weather by CustomWeather, © 2014

See weather overviewHow to use our weather pages